TimeCDT,TemperatureF,Dew PointF,Humidity,Sea Level PressureIn,VisibilityMPH,Wind Direction,Wind SpeedMPH,Gust SpeedMPH,PrecipitationIn,Events,Conditions,WindDirDegrees,DateUTC
12:15 AM,73.4,60.8,65,29.96,10.0,SSE,17.3,-,N/A,,Clear,150,2013-06-16 05:15:00
12:35 AM,72.7,61.2,67,29.97,10.0,SSE,15.0,-,N/A,,Clear,150,2013-06-16 05:35:00
12:55 AM,71.8,61.7,70,29.98,10.0,SSE,12.7,-,N/A,,Clear,150,2013-06-16 05:55:00
1:15 AM,71.2,62.1,73,29.98,10.0,SSE,11.5,-,N/A,,Clear,160,2013-06-16 06:15:00
1:35 AM,71.2,62.2,73,30.00,10.0,South,9.2,-,N/A,,Clear,170,2013-06-16 06:35:00
1:55 AM,70.3,62.6,76,30.01,10.0,SSE,9.2,-,N/A,,Clear,150,2013-06-16 06:55:00
2:15 AM,70.3,62.6,76,30.04,10.0,ESE,6.9,20.7,N/A,,Clear,110,2013-06-16 07:15:00
2:35 AM,71.4,62.8,74,30.05,10.0,East,6.9,17.3,N/A,,Clear,80,2013-06-16 07:35:00
2:55 AM,70.9,62.6,75,30.06,10.0,NE,6.9,-,N/A,,Clear,40,2013-06-16 07:55:00
3:15 AM,69.4,62.8,79,30.07,10.0,ENE,9.2,-,N/A,,Scattered Clouds,60,2013-06-16 08:15:00
3:35 AM,67.5,57.2,70,30.06,10.0,ENE,16.1,-,N/A,,Scattered Clouds,70,2013-06-16 08:35:00
3:55 AM,65.8,58.1,76,30.05,10.0,East,15.0,19.6,N/A,,Clear,80,2013-06-16 08:55:00
4:15 AM,65.8,59.0,79,30.05,10.0,East,13.8,18.4,N/A,,Clear,80,2013-06-16 09:15:00
4:35 AM,65.3,59.5,82,30.05,10.0,East,12.7,-,N/A,,Clear,90,2013-06-16 09:35:00
4:55 AM,65.5,59.4,81,30.05,10.0,East,9.2,-,N/A,,Clear,90,2013-06-16 09:55:00
5:15 AM,65.1,59.9,83,30.05,10.0,East,10.4,-,N/A,,Clear,100,2013-06-16 10:15:00
5:35 AM,64.4,59.9,85,30.06,10.0,East,8.1,-,N/A,,Clear,90,2013-06-16 10:35:00
5:55 AM,64.9,60.1,84,30.07,10.0,ENE,9.2,-,N/A,,Scattered Clouds,60,2013-06-16 10:55:00
6:15 AM,64.4,60.3,86,30.09,10.0,NE,15.0,21.9,N/A,,Overcast,50,2013-06-16 11:15:00
6:35 AM,64.4,60.8,88,30.10,10.0,ENE,23.0,26.5,N/A,,Overcast,60,2013-06-16 11:35:00
6:55 AM,63.5,58.1,83,30.10,10.0,ENE,19.6,29.9,N/A,,Overcast,60,2013-06-16 11:55:00
7:15 AM,62.8,57.4,82,30.10,10.0,ENE,19.6,27.6,N/A,,Mostly Cloudy,60,2013-06-16 12:15:00
7:35 AM,64.2,58.6,82,30.10,10.0,East,18.4,26.5,N/A,,Mostly Cloudy,80,2013-06-16 12:35:00
7:55 AM,64.9,59.5,83,30.10,10.0,East,19.6,27.6,N/A,,Mostly Cloudy,80,2013-06-16 12:55:00
8:15 AM,66.0,60.1,81,30.10,10.0,East,17.3,24.2,N/A,,Overcast,100,2013-06-16 13:15:00
8:35 AM,67.6,61.7,81,30.11,10.0,East,15.0,-,N/A,,Mostly Cloudy,100,2013-06-16 13:35:00
8:55 AM,68.4,61.7,79,30.11,10.0,ESE,16.1,-,N/A,,Mostly Cloudy,110,2013-06-16 13:55:00
9:15 AM,67.5,60.8,79,30.11,10.0,ESE,18.4,24.2,N/A,,Mostly Cloudy,110,2013-06-16 14:15:00
9:35 AM,68.0,60.6,77,30.12,10.0,ESE,13.8,19.6,N/A,,Mostly Cloudy,120,2013-06-16 14:35:00
9:55 AM,69.6,60.6,73,30.12,10.0,ESE,17.3,21.9,N/A,,Mostly Cloudy,120,2013-06-16 14:55:00
10:15 AM,70.9,61.2,71,30.12,10.0,ESE,18.4,-,N/A,,Scattered Clouds,120,2013-06-16 15:15:00
10:35 AM,71.1,61.3,71,30.11,10.0,ESE,18.4,21.9,N/A,,Mostly Cloudy,120,2013-06-16 15:35:00
10:55 AM,72.5,61.7,69,30.10,10.0,ESE,18.4,23.0,N/A,,Scattered Clouds,120,2013-06-16 15:55:00
11:15 AM,70.9,61.7,73,30.12,10.0,ESE,10.4,-,N/A,,Mostly Cloudy,120,2013-06-16 16:15:00
11:35 AM,73.4,62.8,69,30.11,10.0,SE,5.8,-,N/A,,Mostly Cloudy,130,2013-06-16 16:35:00
11:55 AM,74.5,63.1,68,30.10,10.0,ESE,9.2,-,N/A,,Scattered Clouds,120,2013-06-16 16:55:00
12:15 PM,76.1,63.9,66,30.08,10.0,ESE,18.4,-,N/A,,Scattered Clouds,120,2013-06-16 17:15:00
12:35 PM,79.5,64.6,60,30.08,10.0,SE,16.1,20.7,N/A,,Scattered Clouds,140,2013-06-16 17:35:00
12:55 PM,80.8,64.2,57,30.08,10.0,SSE,21.9,25.3,N/A,,Scattered Clouds,150,2013-06-16 17:55:00
1:15 PM,82.4,64.6,55,30.07,10.0,South,23.0,27.6,N/A,,Scattered Clouds,170,2013-06-16 18:15:00
1:35 PM,81.9,63.3,53,30.07,10.0,South,16.1,23.0,N/A,,Scattered Clouds,190,2013-06-16 18:35:00
1:55 PM,84.2,63.5,50,30.06,10.0,South,18.4,27.6,N/A,,Scattered Clouds,180,2013-06-16 18:55:00
2:15 PM,87.3,63.9,46,30.06,10.0,South,17.3,24.2,N/A,,Clear,170,2013-06-16 19:15:00
2:35 PM,86.7,63.5,46,30.04,10.0,SSW,13.8,27.6,N/A,,Clear,210,2013-06-16 19:35:00
2:55 PM,88.0,64.4,45,30.03,10.0,SSE,13.8,21.9,N/A,,Scattered Clouds,160,2013-06-16 19:55:00
3:15 PM,90.1,63.7,41,30.02,10.0,South,16.1,27.6,N/A,,Scattered Clouds,180,2013-06-16 20:15:00
3:35 PM,91.8,62.6,38,30.01,10.0,SSE,13.8,19.6,N/A,,Clear,150,2013-06-16 20:35:00
3:55 PM,92.5,61.5,35,30.00,10.0,SSE,16.1,19.6,N/A,,Clear,150,2013-06-16 20:55:00
4:15 PM,92.3,60.4,34,29.99,10.0,SE,9.2,17.3,N/A,,Clear,140,2013-06-16 21:15:00
4:35 PM,91.2,59.7,35,29.97,10.0,SSE,15.0,20.7,N/A,,Clear,150,2013-06-16 21:35:00
4:55 PM,90.5,59.4,35,29.96,10.0,SSE,16.1,23.0,N/A,,Clear,150,2013-06-16 21:55:00
5:15 PM,94.3,52.3,24,29.96,10.0,SSE,9.2,23.0,N/A,,Clear,160,2013-06-16 22:15:00
5:35 PM,92.1,59.9,34,29.96,10.0,SE,16.1,27.6,N/A,,Clear,140,2013-06-16 22:35:00
5:55 PM,89.2,52.9,29,29.95,10.0,SE,21.9,25.3,N/A,,Clear,130,2013-06-16 22:55:00
6:15 PM,87.8,56.5,34,29.95,10.0,SE,17.3,26.5,N/A,,Clear,130,2013-06-16 23:15:00
6:35 PM,89.8,51.8,27,29.94,10.0,SE,21.9,26.5,N/A,,Clear,130,2013-06-16 23:35:00
6:55 PM,90.0,53.8,29,29.94,10.0,ESE,18.4,-,N/A,,Clear,120,2013-06-16 23:55:00
7:15 PM,89.6,54.3,30,29.93,10.0,SE,19.6,23.0,N/A,,Clear,130,2013-06-17 00:15:00
7:35 PM,89.2,55.9,32,29.92,10.0,ESE,16.1,23.0,N/A,,Clear,120,2013-06-17 00:35:00
7:55 PM,86.7,55.6,34,29.93,10.0,SE,15.0,-,N/A,,Clear,130,2013-06-17 00:55:00
8:15 PM,85.5,55.4,36,29.93,10.0,SE,12.7,-,N/A,,Clear,140,2013-06-17 01:15:00
8:35 PM,83.1,60.8,47,29.94,10.0,SE,12.7,-,N/A,,Clear,130,2013-06-17 01:35:00
8:55 PM,81.7,59.4,47,29.95,10.0,SE,10.4,-,N/A,,Clear,130,2013-06-17 01:55:00
9:15 PM,79.7,57.7,47,29.96,10.0,SE,9.2,-,N/A,,Clear,140,2013-06-17 02:15:00
9:35 PM,77.9,56.5,48,29.96,10.0,SE,9.2,-,N/A,,Clear,130,2013-06-17 02:35:00
9:55 PM,76.8,53.2,44,29.97,10.0,SSE,10.4,-,N/A,,Clear,150,2013-06-17 02:55:00
10:15 PM,77.2,52.9,43,29.99,10.0,SE,6.9,-,N/A,,Clear,140,2013-06-17 03:15:00
10:35 PM,74.8,52.7,46,30.01,10.0,East,4.6,-,N/A,,Clear,80,2013-06-17 03:35:00
10:55 PM,75.4,56.1,51,30.01,10.0,SE,8.1,-,N/A,,Clear,130,2013-06-17 03:55:00
11:15 PM,76.3,56.7,51,30.01,10.0,ESE,15.0,-,N/A,,Clear,120,2013-06-17 04:15:00
11:35 PM,75.2,56.8,53,30.02,10.0,Calm,Calm,-,N/A,,Clear,0,2013-06-17 04:35:00
11:55 PM,75.0,57.2,54,30.07,10.0,NNE,12.7,17.3,N/A,,Clear,20,2013-06-17 04:55:00